Regional Weather Roundup
Issued by NWS

Home | Current Version | Previous Version | Graphics & Text | Print | Product List | Glossary On
Versions: 1 2 3 4 5 6 7 8 9 10 11 12 13 14 15 16 17 18 19 20 21 22 23 24 25 26 27 28 29 30 31 32 33 34 35 36 37 38 39 40 41 42 43 44 45 46 47 48 49 50
000
ASUS45 KCYS 070310
RWRWY

WYOMING REGIONAL WEATHER ROUNDUP
NATIONAL WEATHER SERVICE CHEYENNE WY
900 PM MDT MON JUL 06 2015

NOTE:  "FAIR" INDICATES FEW OR NO CLOUDS BELOW 12,000 FEET
WITH NO SIGNIFICANT WEATHER AND/OR OBSTRUCTIONS TO VISIBILITY.

WYZ001-070400-
YELLOWSTONE NATIONAL PARK

CITY           SKY/WX    TMP DP  RH WIND       PRES   REMARKS
LK YELLOWSTONE   N/A     57  51  80 CALM      30.31R
W YELLOWSTONE  NOT AVBL

$$
WYZ002>013-054>058-071-098>099-070400-
NORTHERN WYOMING

CITY           SKY/WX    TMP DP  RH WIND       PRES   REMARKS
JACKSON        MOCLDY    63  52  67 SW7       30.21F
CODY           CLOUDY    64  54  68 SE5       30.18S
GREYBULL       FAIR      72  51  47 W6        30.11S
WORLAND        MOCLDY    67  56  67 CALM      30.12F
SHERIDAN       MOCLDY    62  54  74 E3        30.16F
BUFFALO        FAIR      59  54  83 S8        30.22S
GILLETTE       FAIR      59  52  77 E5        30.20S
HULETT         MOCLDY    61  54  77 E3        30.23R
NEWCASTLE      FAIR      59  52  77 SE8       30.21S

$$
WYZ014>020-022>026-101>103-070400-
CENTRAL WYOMING

CITY           SKY/WX    TMP DP  RH WIND       PRES   REMARKS
BIG PINEY      MOCLDY    58  51  78 CALM      30.28R
PINEDALE       CLOUDY    55  54  94 MISG      30.28S
DUBOIS         LGT RAIN  54  48  82 CALM      30.30R
LANDER         CLOUDY    59  54  83 W6        30.21R
RIVERTON       CLOUDY    63  55  75 W7        30.21F
CASPER         FAIR      61  51  70 E12       30.22S
DOUGLAS        FAIR      58  54  86 S7        30.24S FOG

$$
WYZ021-027>030-104>119-070400-
SOUTHERN WYOMING

CITY           SKY/WX    TMP DP  RH WIND       PRES   REMARKS
EVANSTON       MOCLDY    61  48  62 E16       30.26R
KEMMERER       MOCLDY    55  52  88 E6        30.30R
FORT BRIDGER   MOCLDY    59  57  94 SE8       30.31F
ROCK SPRINGS   LGT RAIN  55  53  93 E14       30.28F
DIXON          FAIR      69  51  52 NE13      30.22F
RAWLINS        MOCLDY    63  51  65 NE10      30.27R
SARATOGA       FAIR      61  54  77 CALM      30.26S
LARAMIE        CLOUDY    54  50  86 SE13      30.32R
CHEYENNE       CLOUDY    57  52  83 SE8       30.30R HAZE
TORRINGTON     CLOUDY    65  53  65 CALM      30.22R
PINE BLUFFS    CLOUDY    59  54  82 CALM      30.28R

$$


USA.gov is the U.S. government's official web portal to all federal, state and local government web resources and services.